Location: Boiro
(42.6475°N, 8.8834°W)
Time: 18:45:13
(UTC+01:00)

Tiros 1 despin weight - Pass Details

Date: 05 December 2021
Orbit: 592 x 641 km, 48.2° (Epoch: 20 January)

Event Time Altitude Azimuth Distance (km) Brightness Sun altitude
Rises 13:12:29 0° 210° (SSW) 2,841 ? 24.8°
Reaches altitude 10° 13:15:01 10° 199° (SSW) 1,934 ? 24.9°
Maximum altitude 13:18:49 28° 140° (SE) 1,117 ? 24.9°
Drops below altitude 10° 13:22:36 10° 81° (E) 1,926 ? 24.9°
Sets 13:25:06 0° 69° (ENE) 2,827 ? 24.9°
